Powrót do katalogu

STARLINK-38255

AktywnyŁącznośćSSO
NORAD 100269·PAYLOAD·🇺🇸 United States

Wystrzelony Aug 8, 2026 z Vandenberg Space Force Base

Loading…

Następne Przeloty (najbliższe 24 godziny)

TLE

ŚwieżeSource: Space-Track

Epoka: Sep 14, 2026, 02:31 UTC

1 A0269U 26181Z   26257.10534264  .00129147  00000-0  85237-3 0  9994
2 A0269  97.2834 300.3828 0001447  93.5346 266.6085 15.75225965  6941

Śledź STARLINK-38255 w czasie rzeczywistym z AllMySat

Download on the App Store